{"data":{"norad_id":59416,"epoch":"2026-05-24T21:40:54.224832Z","epoch_age_seconds":86603,"freshness":"FRESH","line1":"1 59416U 24064U   26144.90340538  .00000956  00000+0  44250-4 0  9998","line2":"2 59416  43.0014 345.5826 0001121 266.0328  94.0396 15.27580181120882","mean_motion":15.27580181,"eccentricity":0.0001121,"inclination_deg":43.0014,"raan_deg":345.5826,"arg_perigee_deg":266.0328,"mean_anomaly_deg":94.0396,"bstar":4.425e-5,"rev_number":12088,"period_min":94.266737544168,"perigee_km":482.27941515998,"apogee_km":483.8176929612,"semimajor_km":6861.1855540606,"source":"CELESTRAK","updated_at":"2026-05-25T13:38:18.942602Z"}}